Content
SEND FEEDBACK

Daily
Averages
Monthly
Summary
United States of America

GUERNSEY, WYOMING


Home > North America > United States > Wyoming
Elevation: 4390 feet     Latitude: 42 15N     Longitude: 104 43W

WEATHER
 
SELECT A DAY
Number of Records: 148,339;   Date Range: 7/18/98 - 12/19/14
 
SHARE

PRINT THIS DATA

[ ← Previous Day ]
WEATHER ALMANAC - JANUARY 31, 2013
[ Next Day → ]
[ °C ]   °F
Weather ElementAverageHighLow
Temperature24.4 °F30 °F (3:53 pm)16 °F (8:53 am)
Dewpoint14.1 °F19 °F (1:53 am)7 °F (9:53 am)
Humidity65.2 %75 % (1:53 am)54 % (2:53 pm)
Barometer30.17 in30.28 in (10:53 am)29.97 in (1:53 am)
Wind Speed8.2 mph15 mph (8:53 am)
Wind Gust24.2 mph (3:53 am)
Weather ElementAverage
Visibility10 mi
Wind DirectionSW (229 °)

Weather ElementTotal
Precipitation---
Heating Degree Days42 (Base 65)
Averaged from 21 records on January 31, 2013
WEATHER CONDITIONS BREAKOUT
WIND DIRECTION BREAKOUT
WEATHER BY HOUR - JANUARY 31, 2013
[ °C ]   °F
Local TimeTemperatureDewpointHumidityBarometerVisibilityWind DirectionWind SpeedGust SpeedPrecipitationEventsConditions
1:53 AM26.1 °F19.0 °F75 %29.97 in9.0 miNW (310°)13.8 mph21.9 mph0.00 inOvercast
2:53 AM26.1 °F17.1 °F69 %29.98 in10.0 miNW (310°)11.5 mphOvercast
3:53 AM25.0 °F16.0 °F69 %30.00 in10.0 miNNW (330°)12.7 mph24.2 mphOvercast
4:53 AM24.1 °F17.1 °F75 %30.03 in10.0 miWNW (300°)10.4 mphOvercast
5:53 AM24.1 °F17.1 °F75 %30.06 in10.0 miNW (310°)10.4 mphOvercast
6:53 AM25.0 °F15.1 °F66 %30.11 in10.0 miNW (310°)9.2 mph18.4 mphOvercast
7:53 AM21.9 °F14.0 °F72 %30.17 in10.0 miNorth (360°)13.8 mph18.4 mphOvercast
8:53 AM16.0 °F8.1 °F71 %30.24 in10.0 miNorth (360°)15.0 mphOvercast
9:53 AM17.1 °F7.0 °F65 %30.26 in10.0 miNorth (10°)11.5 mph0.00 inOvercast
10:53 AM18.0 °F7.0 °F62 %30.28 in10.0 miNorth (10°)11.5 mphOvercast
11:53 AM19.9 °F9.0 °F62 %30.27 in10.0 miNNW (340°)6.9 mphOvercast
12:53 PM24.1 °F10.9 °F57 %30.22 in10.0 miNW (310°)5.8 mphOvercast
1:53 PM25.0 °F12.0 °F58 %30.20 in10.0 miVariable4.6 mphOvercast
2:53 PM28.9 °F14.0 °F54 %30.18 in10.0 miWest (270°)5.8 mphOvercast
3:53 PM30.0 °F15.1 °F54 %30.19 in10.0 miSouth (190°)4.6 mphOvercast
4:53 PM28.9 °F15.1 °F56 %30.19 in10.0 miCalmOvercast
5:53 PM27.0 °F16.0 °F63 %30.20 in10.0 miSW (220°)6.9 mphOvercast
6:53 PM27.0 °F16.0 °F63 %30.22 in10.0 miSW (220°)6.9 mphOvercast
7:53 PM27.0 °F17.1 °F66 %30.23 in10.0 miSW (230°)4.6 mphOvercast
8:53 PM26.1 °F17.1 °F69 %30.25 in10.0 miWSW (250°)3.5 mphOvercast
9:53 PM26.1 °F17.1 °F69 %30.23 in10.0 miSouth (170°)3.5 mphOvercast
Hourly data recorded from KTOR, located miles away from Guernsey, Wyoming







STORIES FROM OUR PARTNERS